[[{"header":{"parameterUnit":"m.s-1","parameterCategory":1,"la1":30.2991,"la2":30.254,"lo1":-89.0895,"lo2":-89.0444,"dy":0.0017,"dx":0.0017,"nx":28,"ny":28,"refTime":"2023-08-15T03:00:00:Z","depth":0,"parameterNumber":2,"parameterNumberName":"U-component_of_WINDS"},"data":[0,0,0,0,0,0,0,0,0,0,0,0,0,0,0,0,0,0,0,0,0,0,0,0,0,0,0,0,0,0,0,0,0,0,0,0,0,0,0,0,0,0,0,0,0,0,0,0,0,0,0,0,0,0,0,0,0,0,0.7183,0.7184,0,0.7278,0.7279,0.728,0.7353,0.7354,0.7354,0.7355,0.7456,0.7458,0.746,0,0,0,0,0,0,0,0,0,0,0,0,0,0.7065,0.7067,0.7183,0.7184,0.7185,0.7278,0.7279,0.7281,0.7353,0.7354,0.7355,0.7355,0.7455,0.7457,0.746,0,0,0,0,0,0,0,0,0,0,0,0,0,0.7134,0.7068,0.7182,0.7232,0.7238,0.7278,0.7279,0.7281,0.7353,0.7354,0.7355,0.7356,0.7454,0.7457,0.746,0.7459,0,0,0.747,0.7471,0,0,0,0,0,0,0,0,0.713,0.7138,0.7224,0.7229,0.7235,0.7305,0.7275,0.7341,0.7353,0.7309,0.7355,0.7356,0.7405,0.7412,0.7428,0.7464,0.7468,0.747,0.7472,0.7473,0.7474,0,0,0,0,0,0,0,0.7125,0.7135,0.7221,0.7225,0.7232,0.7251,0.7262,0.7288,0.735,0.7313,0.7319,0.7329,0.7408,0.7425,0.7431,0.747,0.747,0.7472,0.7474,0.7476,0.7511,0.751,0,0,0,0,0,0,0.7112,0.713,0.7218,0.7223,0.7184,0.7252,0.7264,0.7281,0.735,0.7362,0.7328,0.7332,0.7419,0.7427,0.7434,0.7439,0.7473,0.7476,0.7478,0.7512,0.7511,0.751,0,0,0,0,0,0,0.711,0.7119,0.7214,0.7178,0.7192,0.7253,0.7272,0.7283,0.7299,0.7361,0.7373,0.7333,0.742,0.743,0.7453,0.7443,0.7477,0.748,0.7513,0.7512,0.751,0.7446,0,0,0,0,0,0,0.7106,0.7118,0.7118,0.7178,0.7193,0.7229,0.7271,0.7284,0.7304,0.731,0.7369,0.738,0.7422,0.7448,0.7456,0.7448,0.7482,0.7514,0.7512,0.7511,0.7449,0.7443,0.7437,0,0,0,0,0,0.7101,0.7096,0.7117,0.7127,0.7194,0.7228,0.7237,0.7284,0.7303,0.7304,0.7344,0.7378,0.7443,0.7449,0.7459,0.7452,0.7515,0.7513,0.7511,0.7452,0.7444,0.7437,0,0,0,0,0,0,0.7034,0.7105,0.7129,0.7143,0.7179,0.724,0.7243,0.7274,0.7306,0.7311,0.7369,0.7381,0.7398,0.7427,0.7433,0.7455,0.7483,0.7483,0.7435,0.7428,0.7422,0.7415,0.7485,0,0,0,0,0,0.702,0.7041,0.7103,0.7109,0.7126,0.7181,0.7197,0.7231,0.7271,0.7287,0.7328,0.7366,0.7396,0.7413,0.7444,0.7454,0.7468,0.7454,0.7448,0.7442,0.7442,0.745,0.7445,0.7503,0.7503,0.7503,0,0,0.6993,0.7034,0.7044,0.7096,0.7128,0.715,0.7193,0.7214,0.7231,0.729,0.7314,0.7345,0.7392,0.7408,0.7418,0.7434,0.7429,0.744,0.7435,0.7437,0.7447,0.7442,0.7437,0.7502,0.7502,0.7502,0,0,0.6954,0.6987,0.6996,0.7027,0.7075,0.7111,0.7113,0.7171,0.7194,0.7218,0.7263,0.7285,0.7333,0.7365,0.7387,0.7361,0.7394,0.7369,0.7337,0.7344,0.734,0.7336,0.7327,0.7323,0.7368,0.7368,0.7368,0,0.6914,0.6947,0.6997,0.7015,0.7037,0.7091,0.7101,0.7129,0.7184,0.7199,0.7215,0.7278,0.7313,0.7338,0.7331,0.7348,0.7353,0.7363,0.7336,0.7333,0.733,0.7322,0.7319,0.7364,0.7365,0.7365,0.7366,0,0.6896,0.6919,0.6921,0.6972,0.6994,0.7008,0.7061,0.7077,0.7109,0.7144,0.7169,0.7213,0.7253,0.7261,0.7292,0.7291,0.7299,0.7325,0.7355,0.732,0.7314,0.7311,0.736,0.7361,0.7362,0.7363,0,0,0.6817,0.6896,0.6895,0.692,0.6976,0.6995,0.7012,0.7051,0.7064,0.7101,0.7117,0.7157,0.7182,0.7207,0.7242,0.7248,0.7225,0.7274,0.7276,0.7264,0.7227,0.7207,0.7203,0.7248,0.7247,0.7247,0.7223,0,0.6787,0.682,0.6865,0.6883,0.6905,0.6957,0.6972,0.7009,0.7042,0.7066,0.7104,0.7131,0.7161,0.7177,0.7186,0.7226,0.7219,0.7229,0.7264,0.7265,0.7251,0.72,0.7179,0.7154,0.7221,0.7221,0.7221,0,0.6756,0.679,0.6809,0.6865,0.6876,0.6888,0.6928,0.695,0.6993,0.7017,0.7045,0.7083,0.7105,0.7131,0.7162,0.7168,0.7185,0.7207,0.7207,0.7213,0.7241,0.7204,0.7147,0.7144,0.7217,0.7217,0.7218,0,0.6697,0.6747,0.6765,0.6784,0.6849,0.6857,0.6884,0.6929,0.6949,0.6984,0.6998,0.7035,0.7055,0.7084,0.7131,0.7146,0.7157,0.7187,0.7178,0.7177,0.7179,0.7178,0.7124,0.7189,0.7189,0.7189,0.7189,0,0.6659,0.6669,0.6739,0.675,0.6764,0.6816,0.6828,0.6861,0.69,0.6919,0.6967,0.6984,0.7045,0.707,0.7107,0.7127,0.7136,0.7157,0.7167,0.7153,0.715,0.7165,0.7168,0.7188,0.7189,0.7189,0.7189,0,0.6595,0.6642,0.6666,0.6725,0.6741,0.6748,0.6799,0.6813,0.6849,0.6873,0.6882,0.6939,0.6971,0.702,0.7067,0.7092,0.7106,0.7122,0.7091,0.7097,0.7086,0.7086,0.704,0.7037,0.7103,0.7102,0.7101,0,0.6567,0.6576,0.6637,0.6653,0.6679,0.6704,0.6725,0.6778,0.6798,0.6848,0.6856,0.6891,0.6922,0.697,0.7016,0.7052,0.707,0.7051,0.7076,0.7061,0.707,0.7069,0.707,0.7046,0.7045,0.7044,0.7043,0,0.6514,0.6537,0.6565,0.6602,0.6626,0.6657,0.6691,0.6702,0.6762,0.6783,0.6815,0.6839,0.6886,0.6921,0.6963,0.6993,0.7028,0.7035,0.7035,0.7021,0.7002,0.7013,0.7076,0.7036,0.7037,0.7037,0.7038,0.7038,0.6468,0.6478,0.6523,0.6553,0.6584,0.6615,0.663,0.6669,0.6696,0.6739,0.6768,0.6799,0.6843,0.6904,0.6931,0.6957,0.6972,0.6972,0.6972,0.6971,0.6966,0.6998,0.6965,0.6965,0.6965,0.6966,0.6966,0,0.6417,0.6448,0.6475,0.6521,0.6545,0.6576,0.6615,0.6633,0.666,0.6697,0.6727,0.6764,0.6798,0.6847,0.6885,0.6896,0.6913,0.6904,0.6904,0.691,0.695,0.6946,0.689,0.689,0.689,0.689,0.689,0.689,0.6393,0.6413,0.6441,0.6477,0.6509,0.6539,0.6559,0.6588,0.6618,0.6658,0.6686,0.6718,0.6761,0.6802,0.6834,0.6848,0.686,0.6846,0.6865,0.6901,0.6908,0.6914,0.6911,0.6848,0.6848,0.6823,0.6823,0.6823]},{"header":{"parameterUnit":"m.s-1","parameterCategory":1,"la1":30.2991,"la2":30.254,"lo1":-89.0895,"lo2":-89.0444,"dy":0.0017,"dx":0.0017,"nx":28,"ny":28,"refTime":"2023-08-15T03:00:00:Z","depth":0,"parameterNumber":3,"parameterNumberName":"V-component_of_WINDS"},"data":[0,0,0,0,0,0,0,0,0,0,0,0,0,0,0,0,0,0,0,0,0,0,0,0,0,0,0,0,0,0,0,0,0,0,0,0,0,0,0,0,0,0,0,0,0,0,0,0,0,0,0,0,0,0,0,0,0,0,2.6372,2.6372,0,2.6422,2.6423,2.6423,2.6477,2.6478,2.6478,2.6479,2.6526,2.6527,2.6527,0,0,0,0,0,0,0,0,0,0,0,0,0,2.6316,2.6317,2.6372,2.6372,2.6373,2.6422,2.6423,2.6424,2.6477,2.6478,2.6479,2.6479,2.6526,2.6527,2.6527,0,0,0,0,0,0,0,0,0,0,0,0,0,2.6351,2.6317,2.6372,2.6406,2.6409,2.6422,2.6423,2.6424,2.6477,2.6478,2.6479,2.648,2.6526,2.6527,2.6528,2.651,0,0,2.653,2.653,0,0,0,0,0,0,0,0,2.6349,2.6353,2.64,2.6403,2.6407,2.6445,2.6421,2.6452,2.6476,2.6451,2.6479,2.648,2.6498,2.6501,2.6508,2.6512,2.6514,2.653,2.6531,2.6531,2.6531,0,0,0,0,0,0,0,2.6346,2.6351,2.6392,2.6401,2.6405,2.6417,2.6423,2.6427,2.6467,2.6453,2.6457,2.6463,2.65,2.6507,2.6509,2.6515,2.653,2.6531,2.6531,2.6532,2.6504,2.6503,0,0,0,0,0,0,2.6339,2.6349,2.639,2.6393,2.638,2.6417,2.6424,2.6431,2.6467,2.6474,2.6462,2.6465,2.6505,2.6508,2.6511,2.6491,2.6531,2.6532,2.6532,2.6505,2.6504,2.6502,0,0,0,0,0,0,2.6338,2.6343,2.6388,2.6372,2.6379,2.6417,2.6425,2.6432,2.6439,2.6474,2.6481,2.6462,2.6506,2.651,2.6509,2.6493,2.6532,2.6533,2.6507,2.6505,2.6503,2.6451,0,0,0,0,0,0,2.6336,2.6342,2.6337,2.6372,2.6379,2.6387,2.6424,2.6432,2.6441,2.6445,2.6476,2.6482,2.6507,2.6508,2.651,2.6495,2.6533,2.6508,2.6506,2.6504,2.6454,2.6448,2.6442,0,0,0,0,0,2.6334,2.632,2.6336,2.6341,2.6374,2.6386,2.639,2.6421,2.6439,2.6433,2.6455,2.6481,2.6495,2.6507,2.651,2.6495,2.6509,2.6506,2.6504,2.6457,2.6449,2.6442,0,0,0,0,0,0,2.6281,2.6325,2.6344,2.6341,2.6359,2.6395,2.6389,2.6412,2.6425,2.6428,2.6465,2.6471,2.6466,2.6481,2.6494,2.6479,2.6506,2.6503,2.6469,2.6462,2.6456,2.6451,2.6534,0,0,0,0,0,2.6269,2.6277,2.6314,2.6308,2.6316,2.635,2.6357,2.6379,2.6399,2.6407,2.6429,2.6446,2.6455,2.6459,2.6469,2.6457,2.6463,2.6448,2.6442,2.6437,2.6434,2.6426,2.6419,2.6493,2.6493,2.6493,0,0,2.6244,2.6269,2.6272,2.6297,2.6315,2.6319,2.6357,2.6361,2.6364,2.6407,2.6408,2.6424,2.6446,2.6439,2.6437,2.6451,2.6415,2.6433,2.6429,2.6429,2.6423,2.6416,2.6409,2.6491,2.6492,2.6492,0,0,2.6201,2.6222,2.6218,2.6234,2.6259,2.6282,2.6281,2.6313,2.6326,2.6328,2.6359,2.6363,2.6377,2.6391,2.6399,2.636,2.6382,2.6362,2.6329,2.6321,2.6315,2.631,2.6294,2.6288,2.6359,2.6359,2.6359,0,2.6166,2.6177,2.6212,2.6214,2.6223,2.6264,2.6258,2.6272,2.6299,2.6303,2.6319,2.6337,2.6354,2.635,2.634,2.6347,2.6344,2.6358,2.6314,2.6309,2.6305,2.629,2.6284,2.6356,2.6357,2.6357,2.6357,0,2.6132,2.6138,2.6132,2.6157,2.6166,2.6164,2.6197,2.6202,2.6223,2.6243,2.6243,2.6265,2.6279,2.628,2.6301,2.6278,2.6286,2.6307,2.6335,2.6294,2.628,2.6275,2.6352,2.6353,2.6354,2.6355,0,0,2.6057,2.6101,2.6098,2.6109,2.614,2.6145,2.6143,2.6158,2.616,2.6177,2.6176,2.6186,2.6206,2.6215,2.6238,2.6231,2.6196,2.6253,2.6254,2.624,2.6169,2.6151,2.6144,2.6212,2.6211,2.621,2.6167,0,2.6017,2.602,2.605,2.6043,2.6048,2.6086,2.6084,2.6102,2.6121,2.6126,2.6147,2.6153,2.6179,2.6185,2.618,2.6201,2.6181,2.6205,2.6208,2.6208,2.62,2.6138,2.6119,2.6078,2.6162,2.6161,2.616,0,2.5972,2.5986,2.5979,2.6009,2.6012,2.601,2.6025,2.6031,2.6051,2.6065,2.6075,2.61,2.6099,2.6126,2.6124,2.6139,2.6142,2.6152,2.6151,2.6151,2.618,2.6134,2.6065,2.6058,2.6153,2.6153,2.6154,0,2.5915,2.5933,2.5931,2.5939,2.5974,2.5971,2.5985,2.6007,2.6013,2.6025,2.6029,2.6041,2.6047,2.6055,2.6082,2.61,2.6076,2.6106,2.6085,2.6084,2.6077,2.6077,2.6006,2.6082,2.6083,2.6083,2.6083,0,2.5867,2.586,2.5905,2.5903,2.5897,2.5932,2.5923,2.5941,2.5959,2.596,2.5993,2.5993,2.603,2.6033,2.6054,2.6048,2.6051,2.606,2.6066,2.6056,2.6055,2.6058,2.606,2.6081,2.6081,2.6082,2.6082,0,2.5802,2.5832,2.5831,2.5864,2.5872,2.5865,2.5892,2.5891,2.5912,2.5912,2.5914,2.5946,2.5952,2.598,2.5992,2.6006,2.5991,2.6003,2.5984,2.5988,2.5965,2.5966,2.5892,2.5883,2.5967,2.5966,2.5965,0,2.5768,2.5764,2.5796,2.58,2.5812,2.5818,2.5824,2.5858,2.5863,2.5884,2.5879,2.5888,2.5896,2.5903,2.5926,2.5935,2.5946,2.5919,2.5947,2.5937,2.5943,2.5942,2.5941,2.5913,2.5912,2.5911,2.591,0,2.5704,2.5719,2.5728,2.5741,2.5748,2.576,2.5774,2.5775,2.5812,2.5815,2.5822,2.5828,2.584,2.5847,2.586,2.5872,2.5896,2.5901,2.5897,2.5886,2.5874,2.5878,2.5966,2.5902,2.5903,2.5904,2.5904,2.5905,2.5653,2.565,2.5672,2.568,2.5694,2.5706,2.5706,2.5726,2.5733,2.5746,2.5765,2.5768,2.5786,2.5805,2.5816,2.5818,2.5832,2.5825,2.5824,2.5821,2.5815,2.5876,2.582,2.582,2.5821,2.5821,2.5821,0,2.5589,2.5605,2.5612,2.563,2.5636,2.566,2.5676,2.5678,2.5681,2.5696,2.5704,2.571,2.5717,2.574,2.5749,2.5745,2.5756,2.5746,2.5746,2.5748,2.5803,2.5805,2.5737,2.5737,2.5737,2.5737,2.5737,2.5737,2.5557,2.5553,2.557,2.5572,2.5588,2.5592,2.5598,2.5609,2.5621,2.5626,2.5632,2.5648,2.5666,2.5676,2.5682,2.5689,2.5689,2.5675,2.5685,2.5736,2.5744,2.5752,2.5754,2.5676,2.5675,2.5629,2.5629,2.5628]}]]